FW8176 Weather Reports


time (UTC)temp
C
wind
direction
speed
KPH
gust
KPH
rain 1hr
cm
rain 24hr
cm
rain mn
cm
humidity
%
barometer
mb
20260505153320 13 44 3.2 6.4 0.00 0.00 0.00 68 1010.5
20260505152813 12 205 3.2 6.4 0.00 0.00 0.00 67 1010.5
20260505152324 12 205 3.2 6.4 0.00 0.00 0.00 68 1010.5
20260505151831 12 205 3.2 6.4 0.00 0.00 0.00 66 1010.4
20260505151321 12 205 1.6 3.2 0.00 0.00 0.00 66 1010.4
20260505150313 12 205 1.6 4.8 0.00 0.00 0.00 67 1010.4
20260505140324 11 205 0.0 4.8 0.00 0.00 0.00 64 1010.0
20260505124812 11 230 8.0 11.3 0.00 0.00 0.00 66 1009.3
20260505124345 11 221 4.8 6.4 0.00 0.00 0.00 65 1009.4
20260505123836 11 221 0.0 3.2 0.00 0.00 0.00 65 1009.4
20260505123328 11 221 1.6 3.2 0.00 0.00 0.00 65 1009.2
20260505122820 11 221 0.0 1.6 0.00 0.00 0.00 64 1009.2
20260505122315 11 221 0.0 3.2 0.00 0.00 0.00 64 1009.2
20260505121327 11 221 0.0 3.2 0.00 0.00 0.00 64 1009.2
20260505120819 11 221 0.0 3.2 0.00 0.00 0.00 64 1009.1
20260505120330 11 221 0.0 8.0 0.00 0.00 0.00 64 1009.1
20260505115822 11 221 3.2 8.0 0.00 0.00 0.00 64 1008.9
20260505115315 11 221 0.0 6.4 0.00 0.00 0.00 64 1009.0
20260505114827 11 221 4.8 8.0 0.00 0.00 0.00 63 1008.9
20260505114320 11 219 3.2 8.0 0.00 0.00 0.00 63 1009.0
20260505113831 11 228 1.6 4.8 0.00 0.00 0.00 62 1008.9
20260505113324 11 228 1.6 4.8 0.00 0.00 0.00 62 1008.9
20260505112818 11 228 3.2 4.8 0.00 0.00 0.00 62 1008.8
20260505112316 11 228 1.6 3.2 0.00 0.00 0.00 62 1008.8
20260505111945 11 228 1.6 4.8 0.00 0.00 0.00 64 1008.8
20260505111319 12 228 1.6 4.8 0.00 0.00 0.00 64 1008.8
20260505110835 12 228 3.2 4.8 0.00 0.00 0.00 64 1008.7
20260505110327 12 228 0.0 6.4 0.00 0.00 0.00 63 1008.7
20260505101821 12 98 0.0 0.0 0.00 0.00 0.00 62 1008.5
20260505101332 12 98 0.0 0.0 0.00 0.00 0.00 61 1008.4
20260505100824 12 98 0.0 0.0 0.00 0.00 0.00 61 1008.4
20260505100354 12 98 0.0 0.0 0.00 0.00 0.00 61 1008.4
20260505095825 12 98 0.0 0.0 0.00 0.00 0.00 61 1008.5
20260505095318 12 98 0.0 0.0 0.00 0.00 0.00 62 1008.4
20260505094831 12 98 0.0 0.0 0.00 0.00 0.00 62 1008.4
20260505094323 12 98 0.0 0.0 0.00 0.00 0.00 62 1008.3
20260505093814 12 98 0.0 0.0 0.00 0.00 0.00 62 1008.3
20260505093327 12 98 0.0 0.0 0.00 0.00 0.00 62 1008.2
20260505092823 12 98 0.0 6.4 0.00 0.00 0.00 61 1008.2
20260505092315 12 98 3.2 6.4 0.00 0.00 0.00 61 1008.1
20260505091827 12 77 3.2 6.4 0.00 0.00 0.00 60 1008.1
20260505091321 12 71 0.0 4.8 0.00 0.00 0.00 60 1008.1
20260505090833 13 71 1.6 6.4 0.00 0.00 0.00 60 1008.1
20260505090344 13 96 1.6 12.9 0.00 0.00 0.00 59 1008.1
20260505085816 13 94 3.2 12.9 0.00 0.00 0.00 58 1008.1
20260505085328 13 84 3.2 9.7 0.00 0.00 0.00 56 1008.1
20260505084821 13 92 1.6 9.7 0.00 0.00 0.00 55 1008.0
20260505084314 13 17 3.2 9.7 0.00 0.00 0.00 53 1008.0
20260505083347 13 59 1.6 6.4 0.00 0.00 0.00 53 1008.0
20260505082818 14 61 3.2 6.4 0.00 0.00 0.00 53 1008.0
20260505082330 14 63 3.2 4.8 0.00 0.00 0.00 53 1007.9
20260505081842 14 59 3.2 4.8 0.00 0.00 0.00 52 1007.9
20260505081333 14 59 1.6 4.8 0.00 0.00 0.00 52 1007.8
20260505080825 15 59 0.0 4.8 0.00 0.00 0.00 52 1007.8
20260505080354 15 59 0.0 1.6 0.00 0.00 0.00 51 1007.8
20260505075825 15 59 0.0 1.6 0.00 0.00 0.00 50 1007.7
20260505075318 15 59 0.0 4.8 0.00 0.00 0.00 49 1007.8
20260505074814 15 59 1.6 6.4 0.00 0.00 0.00 49 1007.6
20260505074327 15 72 3.2 9.7 0.00 0.00 0.00 47 1007.8
20260505073819 15 349 6.4 9.7 0.00 0.00 0.00 47 1007.8
20260505073331 15 24 3.2 8.0 0.00 0.00 0.00 46 1007.8
20260505072823 15 342 1.6 8.0 0.00 0.00 0.00 46 1007.7
20260505072316 15 185 3.2 11.3 0.00 0.00 0.00 45 1007.6
20260505071826 15 185 6.4 11.3 0.00 0.00 0.00 45 1007.6
20260505071319 15 215 3.2 9.7 0.00 0.00 0.00 45 1007.5
20260505070830 15 215 6.4 9.7 0.00 0.00 0.00 45 1007.4
20260505070322 16 197 3.2 8.0 0.00 0.00 0.00 44 1007.4
20260505065819 16 197 6.4 8.0 0.00 0.00 0.00 44 1007.3
20260505065330 16 165 4.8 8.0 0.00 0.00 0.00 44 1007.4
20260505064822 16 98 3.2 3.2 0.00 0.00 0.00 43 1007.3
20260505064316 16 46 0.0 4.8 0.00 0.00 0.00 42 1007.1
20260505063829 16 45 3.2 4.8 0.00 0.00 0.00 42 1007.1
20260505063319 16 84 3.2 3.2 0.00 0.00 0.00 42 1007.2
20260505062831 16 84 0.0 0.0 0.00 0.00 0.00 41 1007.1
20260505062323 16 84 0.0 0.0 0.00 0.00 0.00 41 1007.1
20260505061820 16 84 0.0 0.0 0.00 0.00 0.00 41 1007.1
20260505061314 16 84 0.0 0.0 0.00 0.00 0.00 41 1007.1
20260505060826 16 84 0.0 3.2 0.00 0.00 0.00 41 1007.1
20260505060314 16 84 0.0 3.2 0.00 0.00 0.00 41 1007.1
20260505055826 16 84 0.0 1.6 0.00 0.00 0.00 41 1007.2
20260505055319 16 84 0.0 4.8 0.00 0.00 0.00 41 1007.1
20260505054850 16 84 3.2 4.8 0.00 0.00 0.00 41 1007.1
20260505054321 16 84 0.0 0.0 0.00 0.00 0.00 42 1007.1
20260505053814 16 84 0.0 0.0 0.00 0.00 0.00 42 1007.1
20260505053325 16 84 0.0 0.0 0.00 0.00 0.00 42 1007.1
20260505052822 16 84 0.0 0.0 0.00 0.00 0.00 42 1007.1
20260505052333 16 84 0.0 4.8 0.00 0.00 0.00 42 1007.1
20260505051823 16 84 1.6 4.8 0.00 0.00 0.00 42 1007.2
20260505050815 16 82 0.0 9.7 0.00 0.00 0.00 42 1007.2
20260505050327 16 82 1.6 9.7 0.00 0.00 0.00 42 1007.2
20260505041347 17 107 4.8 11.3 0.00 0.00 0.00 39 1007.0
20260505040839 17 117 4.8 8.0 0.00 0.00 0.00 39 1007.1
20260505040330 17 104 4.8 11.3 0.00 0.00 0.00 39 1007.0
20260505035822 17 75 4.8 11.3 0.00 0.00 0.00 39 1006.9
20260505035335 17 20 4.8 8.0 0.00 0.00 0.00 38 1006.8
20260505034825 17 51 4.8 8.0 0.00 0.00 0.00 39 1006.8
20260505034318 17 34 4.8 9.7 0.00 0.00 0.00 39 1006.8
20260505033829 17 103 6.4 9.7 0.00 0.00 0.00 39 1006.8
20260505033322 17 80 3.2 8.0 0.00 0.00 0.00 39 1006.7
20260505032834 17 76 3.2 8.0 0.00 0.00 0.00 38 1006.6
20260505032325 17 9 4.8 8.0 0.00 0.00 0.00 38 1006.5
20260505031821 17 195 1.6 9.7 0.00 0.00 0.00 37 1006.4
20260505031333 17 342 4.8 9.7 0.00 0.00 0.00 37 1006.3
20260505030826 17 23 1.6 9.7 0.00 0.00 0.00 37 1006.3
20260505030318 18 55 4.8 9.7 0.00 0.00 0.00 37 1006.2
20260505025353 18 28 4.8 8.0 0.00 0.00 0.00 35 1006.2
20260505024825 18 86 0.0 6.4 0.00 0.00 0.00 35 1006.2
20260505024339 18 91 0.0 4.8 0.00 0.00 0.00 34 1006.1
20260505023832 18 39 1.6 8.0 0.00 0.00 0.00 34 1006.2
20260505023324 18 141 3.2 8.0 0.00 0.00 0.00 33 1006.0
20260505022815 19 77 0.0 9.7 0.00 0.00 0.00 33 1006.0
20260505022325 19 74 3.2 9.7 0.00 0.00 0.00 33 1005.9
20260505021819 20 36 3.2 14.5 0.00 0.00 0.00 33 1005.9
20260505021330 20 5 8.0 14.5 0.00 0.00 0.00 32 1005.9
20260505020822 20 5 4.8 14.5 0.00 0.00 0.00 34 1005.9
20260505020330 20 10 6.4 17.7 0.00 0.00 0.00 35 1005.8
20260505015821 20 351 6.4 17.7 0.00 0.00 0.00 34 1005.7
20260505015313 20 327 4.8 8.0 0.00 0.00 0.00 32 1005.7
20260505014826 21 14 1.6 14.5 0.00 0.00 0.00 32 1005.7
20260505014318 21 344 4.8 17.7 0.00 0.00 0.00 30 1005.8
20260505013829 21 300 6.4 19.3 0.00 0.00 0.00 32 1005.8
20260505013321 21 24 9.7 20.9 0.00 0.00 0.00 31 1005.7
20260505012818 21 336 6.4 19.3 0.00 0.00 0.00 31 1005.7
20260505012328 21 327 8.0 19.3 0.00 0.00 0.00 33 1005.8
20260505011820 21 345 6.4 12.9 0.00 0.00 0.00 31 1005.8
20260505011332 20 24 6.4 19.3 0.00 0.00 0.00 32 1005.7
20260505010826 21 22 6.4 19.3 0.00 0.00 0.00 31 1005.8
20260505010320 21 67 6.4 16.1 0.00 0.00 0.00 32 1005.6
20260505005813 21 32 8.0 19.3 0.00 0.00 0.00 36 1005.7
20260505005325 21 30 6.4 19.3 0.00 0.00 0.00 32 1005.7
20260505004843 21 44 6.4 16.1 0.00 0.00 0.00 31 1005.7
20260505004315 21 60 9.7 22.5 0.00 0.00 0.00 28 1005.7
20260505003848 22 38 11.3 22.5 0.00 0.00 0.00 28 1005.6
20260505003340 22 15 11.3 17.7 0.00 0.00 0.00 28 1005.6
20260505002818 22 21 6.4 19.3 0.00 0.00 0.00 27 1005.7
20260505002350 22 43 9.7 20.9 0.00 0.00 0.00 28 1005.6
20260505001819 23 42 11.3 17.7 0.00 0.00 0.00 25 1005.7
20260505001331 23 14 6.4 17.7 0.00 0.00 0.00 28 1005.6
20260505000822 23 321 9.7 17.7 0.00 0.00 0.00 23 1005.6
20260505000329 23 11 8.0 19.3 0.00 0.00 0.00 28 1005.6
20260504235827 23 27 6.4 20.9 0.00 0.00 0.00 26 1005.6
20260504235353 23 44 8.0 20.9 0.00 0.00 0.00 27 1005.6
20260504234824 23 15 9.7 22.5 0.00 0.00 0.00 29 1005.6
20260504234317 23 36 11.3 22.5 0.00 0.00 0.00 26 1005.6
20260504233849 23 17 9.7 17.7 0.00 0.00 0.00 26 1005.5
20260504232819 23 19 11.3 24.1 0.00 0.00 0.00 29 1005.4
20260504232331 22 58 8.0 19.3 0.00 0.00 0.00 32 1005.5
20260504231823 22 69 8.0 19.3 0.00 0.00 0.00 31 1005.5
20260504231315 23 36 12.9 22.5 0.00 0.00 0.00 29 1005.5
20260504230828 23 41 12.9 22.5 0.00 0.00 0.00 29 1005.6
20260504230341 23 40 12.9 24.1 0.00 0.00 0.00 30 1005.6
20260504225854 23 41 12.9 24.1 0.00 0.00 0.00 32 1005.6
20260504225327 23 12 9.7 19.3 0.00 0.00 0.00 32 1005.6
20260504224839 23 17 8.0 22.5 0.00 0.00 0.00 32 1005.7
20260504223852 22 5 12.9 29.0 0.00 0.00 0.00 29 1005.8
20260504223323 22 342 8.0 17.7 0.00 0.00 0.00 33 1005.8
20260504222817 23 78 9.7 29.0 0.00 0.00 0.00 29 1005.8
20260504222330 23 22 16.1 29.0 0.00 0.00 0.00 30 1005.8
20260504221821 23 32 12.9 22.5 0.00 0.00 0.00 32 1005.9
20260504221314 23 5 12.9 22.5 0.00 0.00 0.00 31 1005.9
20260504220846 23 13 9.7 22.5 0.00 0.00 0.00 34 1005.9
20260504220353 23 360 8.0 25.7 0.00 0.00 0.00 32 1006.0
20260504215821 23 35 11.3 25.7 0.00 0.00 0.00 32 1006.1
20260504215332 23 52 11.3 24.1 0.00 0.00 0.00 34 1006.2
20260504214829 23 26 9.7 24.1 0.00 0.00 0.00 33 1006.2
20260504214341 23 65 9.7 25.7 0.00 0.00 0.00 34 1006.4
20260504213830 23 27 12.9 25.7 0.00 0.00 0.00 35 1006.4
20260504213342 23 360 12.9 20.9 0.00 0.00 0.00 32 1006.3
20260504212813 23 15 11.3 20.9 0.00 0.00 0.00 31 1006.4
20260504212345 23 11 9.7 20.9 0.00 0.00 0.00 33 1006.3
20260504211816 23 15 8.0 22.5 0.00 0.00 0.00 34 1006.5
20260504211326 23 24 11.3 22.5 0.00 0.00 0.00 36 1006.5
20260504210818 23 35 11.3 22.5 0.00 0.00 0.00 31 1006.5
20260504210330 23 51 11.3 22.5 0.00 0.00 0.00 32 1006.5
20260504205820 23 11 11.3 22.5 0.00 0.00 0.00 32 1006.5
20260504205315 23 11 8.0 24.1 0.00 0.00 0.00 36 1006.6
20260504204827 23 38 12.9 24.1 0.00 0.00 0.00 33 1006.6
20260504204318 23 31 4.8 16.1 0.00 0.00 0.00 35 1006.6
20260504203827 23 15 8.0 17.7 0.00 0.00 0.00 32 1006.6
20260504203320 22 39 8.0 19.3 0.00 0.00 0.00 36 1006.7
20260504202832 22 11 12.9 19.3 0.00 0.00 0.00 33 1006.7
20260504202345 23 28 9.7 14.5 0.00 0.00 0.00 35 1006.8
20260504201837 22 355 8.0 17.7 0.00 0.00 0.00 33 1006.9
20260504201329 22 348 4.8 17.7 0.00 0.00 0.00 36 1006.8
20260504200318 21 5 12.9 22.5 0.00 0.00 0.00 32 1006.8
20260504195831 22 5 9.7 24.1 0.00 0.00 0.00 32 1006.8
20260504195343 22 9 9.7 17.7 0.00 0.00 0.00 34 1006.9
20260504194817 22 43 11.3 19.3 0.00 0.00 0.00 34 1007.0
20260504194329 22 360 9.7 19.3 0.00 0.00 0.00 34 1007.0
20260504193821 22 17 4.8 12.9 0.00 0.00 0.00 37 1007.1
20260504193331 22 355 6.4 11.3 0.00 0.00 0.00 38 1007.2
20260504192823 22 339 6.4 12.9 0.00 0.00 0.00 33 1007.2
20260504192315 22 16 6.4 9.7 0.00 0.00 0.00 34 1007.3
20260504191326 22 315 4.8 9.7 0.00 0.00 0.00 39 1007.3
20260504190818 22 293 3.2 8.0 0.00 0.00 0.00 39 1007.5
20260504190314 22 315 3.2 8.0 0.00 0.00 0.00 43 1007.5
20260504185846 21 319 3.2 8.0 0.00 0.00 0.00 39 1007.5
20260504185318 21 329 4.8 9.7 0.00 0.00 0.00 45 1007.5
20260504184829 21 342 3.2 9.7 0.00 0.00 0.00 47 1007.6
20260504183821 20 355 4.8 8.0 0.00 0.00 0.00 46 1007.8
20260504183313 20 355 4.8 8.0 0.00 0.00 0.00 40 1007.8
20260504182825 20 348 4.8 8.0 0.00 0.00 0.00 41 1007.8
20260504182317 19 18 3.2 8.0 0.00 0.00 0.00 44 1007.9
20260504181829 19 28 3.2 6.4 0.00 0.00 0.00 46 1007.9
20260504181321 19 25 3.2 6.4 0.00 0.00 0.00 47 1008.0
20260504180832 18 347 3.2 6.4 0.00 0.00 0.00 42 1008.2
20260504180325 18 338 1.6 6.4 0.00 0.00 0.00 42 1008.2
20260504175818 18 15 4.8 6.4 0.00 0.00 0.00 49 1008.2
20260504175350 18 355 4.8 6.4 0.00 0.00 0.00 48 1008.3
20260504174821 17 351 3.2 6.4 0.00 0.00 0.00 46 1008.3
20260504174313 17 13 1.6 8.0 0.00 0.00 0.00 51 1008.3
20260504173824 17 338 3.2 8.0 0.00 0.00 0.00 51 1008.4
20260504173316 17 19 1.6 6.4 0.00 0.00 0.00 53 1008.4
20260504172828 17 10 3.2 6.4 0.00 0.00 0.00 51 1008.5
20260504172341 17 17 1.6 6.4 0.00 0.00 0.00 51 1008.4
20260504171831 16 19 3.2 6.4 0.00 0.00 0.00 51 1008.5
20260504171327 16 345 3.2 6.4 0.00 0.00 0.00 48 1008.5
20260504170819 16 327 3.2 6.4 0.00 0.00 0.00 54 1008.5
20260504160329 15 249 0.0 0.0 0.00 0.00 0.00 50 1009.0